ONEWEB-0133 (47279 NORAD) Tracking and Keplerian Element Data

This shows tracking and keplerian element data for the satellite.

Feedback or suggestion? Click here.




ElementValue
Catalog47279
NameONEWEB-0133
Epoch Orbit1651
Epoch Day101.91668981
Epoch Year2021
RAAN6.7936
Inclination87.9618
Eccentricity0.0001447
Argument of Perigee84.0369
Mean Anonmoly37.2062
Mean Motion13.28401054
Decay Rate0.00019128
L11 47279U 20100X 21101.91668981 .00019128 00000-0 41860-1 0 9996
L22 47279 87.9618 6.7936 0001447 84.0369 37.2062 13.28401054 16518

Live tracking and technical data element details for ONEWEB-0133 (NORAD 47279). ONEWEB-0133 can be tracked NOW for your location showing map with azimuth and elevation plus other details from your city location.

Track the satellite on the map from your city or location and see movement details for azimuth, elevation, latitude, longitude, range, height, and movement on the map or in text.







IsCatalogInMostPopularTable: catalog: 47279, numindb: 36
Update: records affected: 1



GetName: 47279 ONEWEB-0133

Hit Count: updated at: Tue, 13 Apr 2021 04:20:25 GMT